"Pseudo-MPEC" for P222GIR

Created 2024 Dec 1 5:31:17 UT using Find_Orb

Click here for an explanation of pseudo-MPECs

 
 Astrometry: 
     P222GIR* C2024 11 29.36856804 58 14.181+08 17 17.37   ~BTCl 21.46wXNEOCPF52
     P222GIR  C2024 11 29.37932804 58 12.706+08 18 02.28   ~BTCl 21.95wXNEOCPF52
     P222GIR  C2024 11 29.39008604 58 11.221+08 18 47.27   ~BTCl 21.57wXNEOCPF52
     P222GIR  C2024 11 29.40088804 58 09.716+08 19 32.91   ~BTCl 22.53wXNEOCPF52
     P222GIR 1C2024 11 29.91958004 57 02.887+08 55 34.80   ~BTN2 22.1 GXNEOCP033
     P222GIR 1C2024 11 29.92313004 57 02.380+08 55 49.59   ~BTN2 21.9 GXNEOCP033
     P222GIR 1C2024 11 29.93032004 57 01.397+08 56 19.60   ~BTN2 21.6 GXNEOCP033

Station data:
(033) Karl Schwarzschild Observatory, Tautenburg  (N50.980139 E11.711240)
   Germany.  Observer B. Stecklum. 1.34-m f/3 Schmidt + CCD.
(F52) Pan-STARRS 2, Haleakala  (N20.707382 W156.255910)  US/Hawaii.
   Observers J. Bulger, T. Dukes, T. Lowe, A. Schultz, M. Willman. Measurers
   K. Chambers, S. Chastel, T. de Boer, L. Denneau, J. Fairlamb, H.
   Flewelling, M. Huber, C.-C. Lin, E. Magnier, Y. Ramanjooloo, R. Wainscoat,
   R. Weryk. 1.8-m Ritchey-Chrétien + CCD.

Orbital elements:  P222GIR
   Perihelion 2024 Nov 8.29053 +/- 40.6 TT =  6:58:21 (JD 2460622.79053)
Epoch 2024 Nov 30.0 TT = JDT 2460644.5   Earth MOID: 0.3315      AutoNEOCP
M   9.19572610 +/- 16               (J2000 ecliptic)
n   0.42358124 +/- 0.098            Peri.  335.90943 +/- 33
a   1.75594766 +/- 0.271            Node    76.63294 +/- 0.58
e   0.2596006 +/- 0.1               Incl.   25.36486 +/- 3.9
P   2.327/849.880d         H 23.01  G  0.15   U 11.2  SR
q 1.30010254 +/- 0.0681    Q 2.21179278 +/- 0.598
From 7 observations 2024 Nov. 29 (13.5 hr); mean residual 0".16
Residuals in arcseconds: 
241129 F52  .06+  .06+    241129 F52  .19-  .23+    241129 033  .15-  .22-    
241129 F52  .09+  .11-    241129 033  .28+  .18+    
241129 F52  .03+  .18-    241129 033  .08-  .03+    

Ephemerides (geocentric):
Date (UTC) HH   RA             Dec           delta  r     elong  mag " sig PA
---- --------  ------------   ------------  ------ ------ -----  --- --------
2024 12 01 06  04 54 08.253   +10 29 35.94  .33200 1.3120 167.3 21.8 89.2  24
2024 12 01 07  04 54 02.736   +10 32 32.99  .33198 1.3120 167.3 21.8 94.0  24
2024 12 01 08  04 53 57.215   +10 35 30.08  .33196 1.3120 167.4 21.8 98.9  24
2024 12 01 09  04 53 51.691   +10 38 27.23  .33195 1.3121 167.5 21.8  104  24
2024 12 01 10  04 53 46.163   +10 41 24.42  .33194 1.3121 167.5 21.8  109  24
2024 12 01 11  04 53 40.632   +10 44 21.66  .33192 1.3122 167.6 21.8  114  24
2024 12 01 12  04 53 35.097   +10 47 18.94  .33191 1.3122 167.7 21.8  120  24
2024 12 01 13  04 53 29.559   +10 50 16.27  .33190 1.3123 167.8 21.8  125  24
2024 12 01 14  04 53 24.018   +10 53 13.64  .33188 1.3123 167.8 21.8  131  24
2024 12 01 15  04 53 18.473   +10 56 11.06  .33187 1.3123 167.9 21.8  137  24
2024 12 01 16  04 53 12.925   +10 59 08.52  .33186 1.3124 168.0 21.8  143  24
2024 12 01 17  04 53 07.373   +11 02 06.02  .33185 1.3124 168.0 21.8  149  24
2024 12 01 18  04 53 01.818   +11 05 03.56  .33184 1.3125 168.1 21.8  155  24
2024 12 01 19  04 52 56.260   +11 08 01.14  .33183 1.3125 168.2 21.8  161  24
2024 12 01 20  04 52 50.698   +11 10 58.76  .33182 1.3126 168.2 21.8  168  24
2024 12 01 21  04 52 45.134   +11 13 56.42  .33181 1.3126 168.3 21.8  174  24
2024 12 01 22  04 52 39.566   +11 16 54.12  .33180 1.3126 168.4 21.8  181  24
2024 12 01 23  04 52 33.995   +11 19 51.86  .33180 1.3127 168.4 21.8  188  24
2024 12 02 00  04 52 28.420   +11 22 49.63  .33179 1.3127 168.5 21.8  194  24
2024 12 02 01  04 52 22.843   +11 25 47.44  .33178 1.3128 168.5 21.8  201  24
2024 12 02 02  04 52 17.262   +11 28 45.29  .33178 1.3128 168.6 21.8  209  24
2024 12 02 03  04 52 11.678   +11 31 43.16  .33177 1.3129 168.7 21.8  216  24
2024 12 02 04  04 52 06.092   +11 34 41.08  .33177 1.3129 168.7 21.8  223  24
2024 12 02 05  04 52 00.502   +11 37 39.02  .33176 1.3130 168.8 21.8  231  24
2024 12 02 06  04 51 54.909   +11 40 37.00  .33176 1.3130 168.9 21.8  239  24
2024 12 02 07  04 51 49.313   +11 43 35.01  .33175 1.3130 168.9 21.8  246  24
2024 12 02 08  04 51 43.714   +11 46 33.05  .33175 1.3131 169.0 21.8  254  24
2024 12 02 09  04 51 38.112   +11 49 31.12  .33175 1.3131 169.1 21.8  262  24
2024 12 02 10  04 51 32.507   +11 52 29.22  .33175 1.3132 169.1 21.8  270  24
2024 12 02 11  04 51 26.899   +11 55 27.35  .33175 1.3132 169.2 21.8  279  24
2024 12 02 12  04 51 21.288   +11 58 25.51  .33174 1.3133 169.3 21.8  287  24
2024 12 02 13  04 51 15.675   +12 01 23.69  .33174 1.3133 169.3 21.8  296  24
2024 12 02 14  04 51 10.058   +12 04 21.90  .33174 1.3134 169.4 21.8  304  24
2024 12 02 15  04 51 04.439   +12 07 20.14  .33175 1.3134 169.5 21.8  313  24
2024 12 02 16  04 50 58.817   +12 10 18.40  .33175 1.3134 169.5 21.8  322  25
2024 12 02 17  04 50 53.192   +12 13 16.68  .33175 1.3135 169.6 21.8  331  25
2024 12 02 18  04 50 47.564   +12 16 14.99  .33175 1.3135 169.6 21.8  340  25
2024 12 02 19  04 50 41.934   +12 19 13.32  .33175 1.3136 169.7 21.8  349  25
2024 12 02 20  04 50 36.300   +12 22 11.68  .33176 1.3136 169.8 21.8  359  25
2024 12 02 21  04 50 30.664   +12 25 10.05  .33176 1.3137 169.8 21.8  368  25
2024 12 02 22  04 50 25.026   +12 28 08.45  .33177 1.3137 169.9 21.8  378  25
2024 12 02 23  04 50 19.385   +12 31 06.86  .33177 1.3138 170.0 21.7  388  25
2024 12 03 00  04 50 13.741   +12 34 05.29  .33178 1.3138 170.0 21.7  398  25
2024 12 03 01  04 50 08.094   +12 37 03.75  .33178 1.3139 170.1 21.7  408  25
2024 12 03 02  04 50 02.445   +12 40 02.22  .33179 1.3139 170.1 21.7  418  25
2024 12 03 03  04 49 56.793   +12 43 00.70  .33180 1.3139 170.2 21.7  428  25
2024 12 03 04  04 49 51.139   +12 45 59.21  .33180 1.3140 170.3 21.7  438  25
2024 12 03 05  04 49 45.483   +12 48 57.72  .33181 1.3140 170.3 21.7  449  25